Location: ???????
(55.4362°N, 38.1183°E)
Time: 06:39:55
(UTC+00:00)

ISS - Visible Passes

Search period start: 23 September 2021 00:00
Search period end: 03 October 2021 00:00
Orbit: 419 x 424 km, 51.6° (Epoch: 22 September)

Date Brightness Start Highest point End Pass type
(mag) Time Alt. Az. Time Alt. Az. Time Alt. Az.
23 Sep -3.0 16:39:47 10° WSW 16:42:57 38° SSE 16:44:42 21° ESE visible
23 Sep -1.6 18:16:15 10° W 18:17:41 22° WSW 18:17:41 22° WSW visible
24 Sep -2.7 15:53:04 10° SW 15:56:08 33° SSE 15:59:13 10° E visible
24 Sep -3.2 17:29:23 10° WSW 17:32:32 43° S 17:32:32 43° S visible
25 Sep -3.2 16:42:33 10° WSW 16:45:47 44° S 16:47:22 25° ESE visible
25 Sep -1.3 18:19:14 10° W 18:20:21 18° WSW 18:20:21 18° WSW visible
26 Sep -3.0 15:55:43 10° WSW 15:58:57 42° S 16:02:10 10° ESE visible
26 Sep -2.7 17:32:19 10° W 17:35:10 35° SSW 17:35:10 35° SSW visible
27 Sep -3.0 16:45:26 10° W 16:48:37 40° S 16:49:59 26° SE visible
27 Sep -0.9 18:22:26 10° WSW 18:22:58 13° WSW 18:22:58 13° WSW visible
28 Sep -3.0 15:58:33 10° WSW 16:01:47 43° S 16:04:49 11° ESE visible
28 Sep -2.0 17:35:22 10° W 17:37:48 24° SW 17:37:48 24° SW visible
29 Sep -2.4 16:48:23 10° W 16:51:23 30° SSW 16:52:39 22° SSE visible
30 Sep -2.6 16:01:26 10° W 16:04:33 35° SSW 16:07:32 11° SE visible
30 Sep -1.3 17:38:49 10° WSW 17:40:31 14° SW 17:40:31 14° SW visible
01 Oct -1.6 16:51:34 10° WSW 16:54:01 19° SSW 16:55:27 15° S visible
02 Oct -1.8 16:04:28 10° W 16:07:15 24° SSW 16:10:01 10° SSE visible
